Weather History for Bogalusa, LA

Change the Weather History Date:

Tuesday, March 4, 2014

  Actual Average Record
Temperature  
Mean Temperature 34 °F -  
Max Temperature 37 °F 68 °F 67 °F (2013)
Min Temperature 32 °F 45 °F 31 °F (2013)
Degree Days  
Heating Degree Days 30    
Moisture  
Dew Point 31 °F    
Average Humidity 84    
Maximum Humidity 90    
Minimum Humidity 77    
Precipitation  
Precipitation 0.43 in - - ()
Sea Level Pressure  
Sea Level Pressure 30.18 in    
Wind  
Wind Speed 7 mph (NNE)    
Max Wind Speed 12 mph    
Max Gust Speed 16 mph    
Visibility 8 miles    
Events Rain    
Averages and records for this station are not official NWS values.
T = Trace of Precipitation, MM = Missing Value Source: NWS Daily Summary

Daily Weather History Graph

Daily Weather History Graph

Search for Another Location

Airport:

Trip Planner

Search our weather history database for the weather conditions in past years. The results will help you decide how hot, cold, wet, or windy it might be!

Date:

Astronomy

Mar. 04, 2014 Rise Set
Actual Time 6:22 AM CST 6:00 PM CST
Civil Twilight 5:58 AM CST 6:24 PM CST
Nautical Twilight 5:30 AM CST 6:52 PM CST
Astronomical Twilight 5:02 AM CST 7:20 PM CST
Moon 8:25 AM CST (3/4) 9:48 PM CST (3/4)
Length of Visible Light 12h 26m
Length of Day
11h 37m
Waxing Crescent, 15% of the Moon is Illuminated
Mar 4
Waxing Crescent
Mar 8
First Quarter
Mar 16
Full
Mar 23
Last Quarter
Mar 30
New

Hourly Weather History & Observations

Time (CST) Temp. Windchill Dew Point Humidity Pressure Visibility Wind Dir Wind Speed Gust Speed Precip Events Conditions
12:15 AM 32.9 °F 25.9 °F 26.4 °F 77% 30.22 in 10.0 mi NNE 8.1 mph - N/A   Unknown
12:35 AM 32.9 °F 24.1 °F 26.6 °F 78% 30.21 in 10.0 mi NE 11.5 mph 16.1 mph N/A   Unknown
12:55 AM 32.9 °F 25.9 °F 26.6 °F 78% 30.20 in 10.0 mi NE 8.1 mph - N/A   Unknown
1:15 AM 32.9 °F 24.7 °F 26.6 °F 78% 30.21 in 10.0 mi North 10.4 mph - N/A   Unknown
1:35 AM 32.9 °F 25.3 °F 26.6 °F 78% 30.20 in 10.0 mi NE 9.2 mph - N/A   Unknown
1:55 AM 32.9 °F 25.9 °F 26.6 °F 78% 30.21 in 10.0 mi NNE 8.1 mph - N/A   Unknown
2:15 AM 32.9 °F 25.3 °F 27.0 °F 79% 30.21 in 10.0 mi North 9.2 mph - N/A   Unknown
2:35 AM 32.5 °F 24.8 °F 26.6 °F 79% 30.19 in 10.0 mi NNE 9.2 mph - N/A   Unknown
2:55 AM 32.9 °F 26.7 °F 27.0 °F 79% 30.19 in 10.0 mi NNE 6.9 mph - N/A   Unknown
3:15 AM 32.9 °F 25.9 °F 27.1 °F 79% 30.20 in 10.0 mi North 8.1 mph - N/A   Unknown
3:35 AM 32.9 °F 27.5 °F 27.0 °F 79% 30.19 in 10.0 mi NE 5.8 mph - N/A   Unknown
3:55 AM 32.4 °F 24.6 °F 26.6 °F 79% 30.18 in 10.0 mi NNE 9.2 mph - N/A   Unknown
4:15 AM 32.4 °F 26.0 °F 26.6 °F 79% 30.19 in 10.0 mi North 6.9 mph - N/A   Unknown
4:35 AM 32.5 °F 25.5 °F 26.8 °F 79% 30.18 in 10.0 mi NE 8.1 mph - N/A   Unknown
4:55 AM 32.4 °F 25.3 °F 26.6 °F 79% 30.18 in 10.0 mi ENE 8.1 mph - N/A   Unknown
5:15 AM 32.2 °F 27.7 °F 26.6 °F 80% 30.18 in 10.0 mi NNE 4.6 mph - N/A   Unknown
5:35 AM 32.5 °F 27.1 °F 26.8 °F 79% 30.19 in 10.0 mi NE 5.8 mph - N/A   Unknown
5:55 AM 32.9 °F 28.5 °F 26.8 °F 78% 30.20 in 10.0 mi NE 4.6 mph - N/A   Unknown
6:15 AM 32.9 °F 29.8 °F 27.5 °F 81% 30.19 in 10.0 mi NE 3.5 mph - N/A   Unknown
6:35 AM 32.9 °F 26.7 °F 27.1 °F 79% 30.19 in 10.0 mi NNE 6.9 mph - N/A   Unknown
6:55 AM 33.1 °F - 27.1 °F 79% 30.20 in 10.0 mi North - - N/A   Unknown
7:15 AM 33.1 °F 26.1 °F 26.8 °F 78% 30.19 in 10.0 mi ENE 8.1 mph - N/A   Unknown
7:35 AM 33.4 °F 29.1 °F 27.1 °F 78% 30.21 in 10.0 mi NNE 4.6 mph - N/A   Unknown
7:55 AM 33.6 °F 26.8 °F 27.3 °F 78% 30.22 in 10.0 mi NNE 8.1 mph - N/A   Unknown
8:15 AM 33.8 °F 27.7 °F 27.3 °F 77% 30.23 in 10.0 mi NNE 6.9 mph - N/A   Unknown
8:35 AM 33.8 °F 27.7 °F 27.3 °F 77% 30.23 in 10.0 mi NNE 6.9 mph - N/A   Unknown
8:55 AM 34.0 °F 28.8 °F 27.5 °F 77% 30.26 in 10.0 mi NNW 5.8 mph - N/A   Unknown
9:15 AM 34.2 °F 30.0 °F 28.0 °F 78% 30.25 in 10.0 mi North 4.6 mph - N/A   Unknown
9:35 AM 34.0 °F 29.8 °F 28.4 °F 80% 30.24 in 7.0 mi NNE 4.6 mph - N/A Rain Light Rain
9:55 AM 33.8 °F - 28.2 °F 80% 30.25 in 3.0 mi Calm Calm - 0.02 in Rain Light Rain
10:15 AM 34.2 °F 29.0 °F 30.2 °F 85% 30.24 in 7.0 mi NNE 5.8 mph - 0.01 in Rain Light Rain
10:35 AM 34.0 °F 28.0 °F 30.4 °F 87% 30.23 in 2.5 mi North 6.9 mph - 0.04 in Rain Rain
10:55 AM 34.0 °F 31.0 °F 30.7 °F 88% 30.23 in 4.0 mi NNE 3.5 mph - 0.08 in Rain Light Rain
11:15 AM 34.7 °F 28.8 °F 31.1 °F 87% 30.21 in 5.0 mi NE 6.9 mph - 0.02 in Rain Light Rain
11:35 AM 34.5 °F 28.6 °F 30.9 °F 87% 30.20 in 5.0 mi NE 6.9 mph - 0.04 in Rain Light Rain
11:55 AM 34.5 °F - 31.5 °F 89% 30.22 in 3.0 mi Calm Calm - 0.06 in Rain Light Rain
12:15 PM 34.7 °F 28.8 °F 31.8 °F 89% 30.23 in 3.0 mi North 6.9 mph - 0.02 in Rain Rain
12:35 PM 34.7 °F 28.1 °F 32.0 °F 90% 30.19 in 2.5 mi NNE 8.1 mph - 0.07 in Rain Rain
12:55 PM 34.7 °F 29.6 °F 32.0 °F 90% 30.19 in 3.0 mi North 5.8 mph - 0.11 in Rain Rain
1:15 PM 34.9 °F 28.3 °F 32.0 °F 89% 30.17 in 3.0 mi NE 8.1 mph - 0.05 in Rain Rain
1:35 PM 35.4 °F 29.7 °F 32.4 °F 89% 30.16 in 4.0 mi East 6.9 mph - 0.09 in Rain Light Rain
2:00 PM 35.4 °F - 32.0 °F 87% 30.16 in 4.0 mi Calm Calm - N/A Rain Light Rain
2:15 PM 35.6 °F - 32.0 °F 87% 30.16 in 4.0 mi Calm Calm - 0.01 in Rain Light Rain
2:35 PM 35.8 °F - 32.4 °F 87% 30.15 in 3.0 mi Calm Calm - 0.03 in Rain Rain
2:55 PM 36.0 °F 32.1 °F 32.5 °F 87% 30.14 in 5.0 mi NE 4.6 mph - 0.04 in   Drizzle
3:15 PM 36.5 °F - 33.1 °F 87% 30.14 in 5.0 mi Calm Calm - 0.01 in Rain Rain
3:35 PM 36.5 °F 32.7 °F 33.1 °F 87% 30.14 in 5.0 mi NNE 4.6 mph - 0.02 in Rain Light Rain
3:55 PM 36.5 °F 31.0 °F 33.4 °F 89% 30.13 in 10.0 mi NNE 6.9 mph - 0.03 in Rain Rain
4:15 PM 36.9 °F 31.4 °F 33.8 °F 89% 30.12 in 10.0 mi NNE 6.9 mph - N/A   Light Drizzle
4:35 PM 36.9 °F 31.4 °F 33.8 °F 89% 30.11 in 10.0 mi NNE 6.9 mph - N/A   Unknown
4:55 PM 37.2 °F 31.9 °F 34.0 °F 88% 30.14 in 10.0 mi North 6.9 mph - N/A   Unknown
5:15 PM 37.0 °F 31.6 °F 33.8 °F 88% 30.13 in 10.0 mi NNE 6.9 mph - N/A   Drizzle
5:35 PM 37.0 °F 31.0 °F 34.0 °F 89% 30.14 in 10.0 mi North 8.1 mph - N/A   Unknown
5:55 PM 36.7 °F 32.0 °F 33.8 °F 89% 30.13 in 10.0 mi NNE 5.8 mph - N/A   Unknown
6:15 PM 36.9 °F 33.1 °F 33.8 °F 89% 30.12 in 10.0 mi NE 4.6 mph - N/A   Unknown
6:35 PM 37.0 °F 32.4 °F 33.8 °F 88% 30.13 in 10.0 mi NNE 5.8 mph - N/A   Unknown
6:55 PM 37.0 °F 33.3 °F 33.8 °F 88% 30.13 in 10.0 mi NNE 4.6 mph - N/A   Unknown
7:15 PM 37.0 °F 33.3 °F 33.8 °F 88% 30.14 in 10.0 mi NE 4.6 mph - N/A   Unknown
7:35 PM 37.0 °F 33.3 °F 33.8 °F 88% 30.15 in 10.0 mi NE 4.6 mph - N/A   Unknown
7:55 PM 37.2 °F 33.6 °F 34.0 °F 88% 30.14 in 10.0 mi NE 4.6 mph - N/A   Unknown
8:15 PM 37.4 °F 33.8 °F 34.3 °F 89% 30.16 in 10.0 mi North 4.6 mph - N/A   Unknown
8:35 PM 37.4 °F 32.8 °F 34.3 °F 89% 30.17 in 10.0 mi North 5.8 mph - N/A   Unknown
8:55 PM 37.4 °F 32.8 °F 34.2 °F 88% 30.15 in 10.0 mi NE 5.8 mph - N/A   Unknown
9:15 PM 37.4 °F 32.8 °F 34.2 °F 88% 30.15 in 10.0 mi NE 5.8 mph - N/A   Unknown
9:35 PM 37.4 °F 31.4 °F 34.0 °F 87% 30.13 in 10.0 mi ENE 8.1 mph - N/A   Unknown
9:55 PM 37.4 °F 32.8 °F 34.0 °F 87% 30.14 in 10.0 mi North 5.8 mph - N/A   Unknown
10:15 PM 37.4 °F 33.8 °F 34.0 °F 87% 30.14 in 10.0 mi NE 4.6 mph - N/A   Unknown
10:35 PM 37.4 °F 33.8 °F 34.0 °F 87% 30.13 in 10.0 mi NE 4.6 mph - N/A   Unknown
10:55 PM 37.6 °F 34.0 °F 34.2 °F 87% 30.15 in 10.0 mi North 4.6 mph - N/A   Unknown
11:15 PM 37.6 °F 35.1 °F 34.3 °F 88% 30.14 in 10.0 mi NNE 3.5 mph - N/A   Unknown
11:35 PM 37.8 °F 35.3 °F 34.3 °F 87% 30.14 in 10.0 mi ENE 3.5 mph - N/A   Unknown
11:55 PM 37.9 °F 35.5 °F 34.7 °F 88% 30.12 in 10.0 mi NNE 3.5 mph - N/A   Unknown